Location: *
(43.4667°N, 11.6833°E)
Time: 10:23:34
(UTC+00:00)

Cosmos 2237 Rocket - Pass Details

Date: 19 July 2019
Orbit: 835 x 850 km, 71.0° (Epoch: 20 August)

Event Time Altitude Azimuth Distance (km) Brightness Sun altitude
Exits shadow 20:52:47 17° 97° (E) 2,021 3.8 -17.5°
Drops below altitude 10° 20:56:05 10° 61° (ENE) 2,451 4.5 -17.8°
Sets 20:59:23 0° 41° (NE) 3,392 5.5 -18.1°
